Minneapolis, MN

10:59 PM CDT on July 21, 2017 (GMT -0500)
Minneapolis-Saint Paul International

Weather History for KMSP - December, 2012

Change the Weather History Date:

Monday, December 3, 2012

  Actual Average Record
Temperature  
Mean Temperature 46 °F 24 °F  
Max Temperature 55 °F 31 °F 62 °F (1962)
Min Temperature 37 °F 17 °F -19 °F (1940)
Degree Days  
Heating Degree Days 19 41  
Month to date heating degree days 73 121  
Since 1 July heating degree days 1561 1740  
Cooling Degree Days 0 0  
Month to date cooling degree days 0 0  
Year to date cooling degree days 1131 753  
Moisture  
Dew Point 46 °F    
Average Humidity 80    
Maximum Humidity 100    
Minimum Humidity 60    
Precipitation  
Precipitation 0.02 in 0.04 in 1.05 in (1953)
Month to date precipitation 0.02 0.13  
Year to date precipitation 27.97 29.58  
Snow  
Snow 0.00 in 0.40 in 7.40 in (1934)
Month to date snowfall 0.0 1.2  
Since 1 July snowfall 0.8 11.1  
Snow Depth 0.00 in    
Sea Level Pressure  
Sea Level Pressure 29.67 in    
Wind  
Wind Speed 11 mph (SSW)    
Max Wind Speed 21 mph    
Max Gust Speed 28 mph    
Visibility 5 miles    
Events Rain    
T = Trace of Precipitation, MM = Missing Value Source: NWS Daily Summary

Daily Weather History Graph

Daily Weather History Graph

Search for Another Location

Airport or City:

Trip Planner

Search our weather history database for the weather conditions in past years. The results will help you decide how hot, cold, wet, or windy it might be!

Date:

Astronomy

Dec. 03, 2012 Rise Set
Actual Time 7:33 AM CST 4:32 PM CST
Civil Twilight 7:00 AM CST 5:05 PM CST
Nautical Twilight 6:23 AM CST 5:42 PM CST
Astronomical Twilight 5:47 AM CST 6:17 PM CST
Moon 9:27 PM CST (12/3) 10:50 AM CST (12/3)
Length of Visible Light 10h 05m
Length of Day
8h 59m
Waning Gibbous, 78% of the Moon is Illuminated
Dec 3
Waning Gibbous
Dec 6
Last Quarter
Dec 13
New
Dec 19
First Quarter
Dec 28
Full

Hourly Weather History & Observations

Time (CST) Temp. Windchill Dew Point Humidity Pressure Visibility Wind Dir Wind Speed Gust Speed Precip Events Conditions
12:53 AM 42.1 °F 35.2 °F 39.9 °F 92% 29.80 in 4.0 mi SE 12.7 mph - N/A   Mostly Cloudy
1:53 AM 45.0 °F 39.3 °F 44.1 °F 97% 29.78 in 4.0 mi SE 11.5 mph - N/A   Overcast
2:53 AM 46.0 °F 39.9 °F 45.0 °F 96% 29.76 in 5.0 mi SSE 13.8 mph - N/A   Mostly Cloudy
3:53 AM 46.0 °F 39.6 °F 44.1 °F 93% 29.72 in 5.0 mi SSE 15.0 mph 20.7 mph N/A   Overcast
4:53 AM 46.9 °F - 46.0 °F 97% 29.69 in 2.5 mi SSE 11.5 mph - N/A   Overcast
5:07 AM 46.4 °F 40.4 °F 46.4 °F 100% 29.67 in 3.0 mi SSE 13.8 mph 20.7 mph N/A   Overcast
5:23 AM 48.2 °F - 46.4 °F 93% 29.66 in 2.5 mi SSE 15.0 mph 25.3 mph N/A   Overcast
5:53 AM 48.0 °F - 48.0 °F 100% 29.67 in 2.5 mi SSE 12.7 mph - N/A   Overcast
6:03 AM 48.2 °F - 48.2 °F 100% 29.64 in 3.0 mi SSE 10.4 mph - N/A   Overcast
6:53 AM 50.0 °F - 48.9 °F 96% 29.63 in 4.0 mi SSE 12.7 mph - N/A   Overcast
7:39 AM 50.0 °F - 50.0 °F 100% 29.61 in 2.5 mi SSE 10.4 mph - N/A   Overcast
7:53 AM 50.0 °F - 50.0 °F 100% 29.62 in 2.0 mi SSE 11.5 mph - N/A   Overcast
8:00 AM 50.0 °F - 50.0 °F 100% 29.60 in 1.2 mi SSE 6.9 mph - N/A   Overcast
8:15 AM 50.0 °F - 50.0 °F 100% 29.59 in 1.0 mi SSE 9.2 mph - N/A   Overcast
8:53 AM 51.8 °F - 51.8 °F 100% 29.59 in 1.0 mi SSE 10.4 mph - N/A   Overcast
9:02 AM 51.8 °F - 51.8 °F 100% 29.58 in 0.8 mi SSE 8.1 mph - 0.00 in   Light Drizzle
9:36 AM 51.8 °F - 51.8 °F 100% 29.56 in 1.0 mi SSE 9.2 mph - 0.00 in   Light Drizzle
9:53 AM 53.1 °F - 52.0 °F 96% 29.58 in 1.5 mi South 9.2 mph - 0.00 in   Light Drizzle
10:03 AM 53.6 °F - 53.6 °F 100% 29.56 in 2.0 mi South 11.5 mph - 0.00 in   Light Drizzle
10:12 AM 53.6 °F - 53.6 °F 100% 29.56 in 3.0 mi South 8.1 mph - 0.00 in   Overcast
10:48 AM 53.6 °F - 53.6 °F 100% 29.56 in 1.2 mi SSW 6.9 mph - 0.00 in   Light Drizzle
10:53 AM 54.0 °F - 53.1 °F 97% 29.57 in 1.0 mi SSW 6.9 mph - 0.01 in   Light Drizzle
11:12 AM 53.6 °F - 53.6 °F 100% 29.55 in 0.8 mi SSW 8.1 mph - 0.00 in Rain Light Rain
11:20 AM 53.6 °F - 53.6 °F 100% 29.55 in 1.2 mi SW 13.8 mph 21.9 mph 0.01 in   Light Drizzle
11:26 AM 55.4 °F - 53.6 °F 94% 29.55 in 2.0 mi WSW 13.8 mph 21.9 mph 0.01 in   Light Drizzle
11:36 AM 53.6 °F - 53.6 °F 100% 29.55 in 3.0 mi WSW 13.8 mph - 0.01 in Rain Light Rain
11:44 AM 55.4 °F - 53.6 °F 94% 29.55 in 3.0 mi SW 15.0 mph 19.6 mph 0.01 in   Overcast
11:53 AM 55.0 °F - 53.1 °F 93% 29.56 in 3.0 mi SW 9.2 mph - 0.01 in   Overcast
12:08 PM 55.4 °F - 53.6 °F 94% 29.55 in 4.0 mi WSW 10.4 mph - N/A   Overcast
12:53 PM 55.0 °F - 50.0 °F 83% 29.57 in 7.0 mi WSW 12.7 mph - N/A   Mostly Cloudy
1:40 PM 53.6 °F - 44.6 °F 72% 29.59 in 7.0 mi West 17.3 mph 21.9 mph N/A   Mostly Cloudy
1:53 PM 53.1 °F - 43.0 °F 69% 29.60 in 8.0 mi West 16.1 mph 23.0 mph N/A   Mostly Cloudy
2:53 PM 53.1 °F - 42.1 °F 66% 29.64 in 10.0 mi WNW 8.1 mph - N/A   Mostly Cloudy
3:25 PM 53.6 °F - 42.8 °F 67% 29.67 in 10.0 mi West 12.7 mph - N/A   Mostly Cloudy
3:53 PM 53.1 °F - 42.1 °F 66% 29.70 in 10.0 mi West 11.5 mph - N/A   Scattered Clouds
4:37 PM 50.0 °F - 41.0 °F 71% 29.73 in 10.0 mi WNW 15.0 mph 24.2 mph N/A   Scattered Clouds
4:53 PM 48.9 °F - 41.0 °F 74% 29.76 in 10.0 mi West 13.8 mph 21.9 mph N/A   Partly Cloudy
5:53 PM 48.0 °F - 39.9 °F 74% 29.81 in 10.0 mi West 11.5 mph - N/A   Clear
6:53 PM 45.0 °F 42.6 °F 36.0 °F 71% 29.85 in 10.0 mi WSW 4.6 mph - N/A   Clear
7:53 PM 45.0 °F 40.6 °F 34.0 °F 65% 29.86 in 10.0 mi WSW 8.1 mph - N/A   Clear
8:53 PM 44.1 °F 38.1 °F 33.1 °F 65% 29.88 in 10.0 mi WSW 11.5 mph - N/A   Clear
9:53 PM 42.1 °F 36.6 °F 30.9 °F 65% 29.89 in 10.0 mi WSW 9.2 mph - N/A   Clear
10:53 PM 41.0 °F 35.8 °F 28.9 °F 62% 29.91 in 10.0 mi WSW 8.1 mph - N/A   Clear
11:53 PM 44.6 °F 38.8 °F 26.6 °F 49% 29.92 in 10.0 mi West 11.5 mph 18.4 mph N/A   Clear